Terminal Aerodrome Forecast
Issued by NWS Sioux Falls, SD

Home | Current Version | Previous Version | Text Only | Print | Product List | Glossary Off
Versions: 1 2 3 4 5 6 7 8 9 10 11 12 13 14 15 16 17 18 19 20 21 22 23 24 25 26 27 28 29 30 31 32

000
FTUS43 KFSD 211745
TAFSUX
TAF
KSUX 211745Z 2118/2218 18012KT 4SM BR OVC007
     FM212000 17015G22KT 4SM BR OVC008
     FM220600 14015G22KT 4SM -RA BR OVC008
     FM221200 13009KT 4SM -RA BR OVC010=

USA.gov is the U.S. government's official web portal to all federal, state and local government web resources and services.